Michigan City, IN

3:23 PM CDT on April 24, 2017 (GMT -0500)
Michigan City Municipal

Weather History for KMGC - March, 2013

Change the Weather History Date:

Saturday, March 9, 2013

  Actual Average (KSBN) Record (KSBN)
Temperature  
Mean Temperature 37 °F -  
Max Temperature 44 °F 42 °F 70 °F (2000)
Min Temperature 30 °F 25 °F 0 °F (1978)
Degree Days  
Heating Degree Days 28    
Moisture  
Dew Point 27 °F    
Average Humidity 66    
Maximum Humidity 80    
Minimum Humidity 57    
Precipitation  
Precipitation 0.00 in - - ()
Sea Level Pressure  
Sea Level Pressure 30.12 in    
Wind  
Wind Speed 7 mph (SSE)    
Max Wind Speed 13 mph    
Max Gust Speed 21 mph    
Visibility 10 miles    
Events Rain    
Averages and records for this station are not official NWS values.
T = Trace of Precipitation, MM = Missing Value Source: NWS Daily Summary

Daily Weather History Graph

Daily Weather History Graph

Search for Another Location

Airport or City:

Trip Planner

Search our weather history database for the weather conditions in past years. The results will help you decide how hot, cold, wet, or windy it might be!

Date:

Astronomy

Mar. 09, 2013 Rise Set
Actual Time 6:08 AM CST 5:47 PM CST
Civil Twilight 5:41 AM CST 6:15 PM CST
Nautical Twilight 5:08 AM CST 6:47 PM CST
Astronomical Twilight 4:36 AM CST 7:19 PM CST
Moon 4:33 AM CST (3/9) 3:47 PM CST (3/9)
Length of Visible Light 12h 34m
Length of Day
11h 38m
Waning Crescent, 5% of the Moon is Illuminated
Mar 9
Waning Crescent
Mar 11
New
Mar 19
First Quarter
Mar 27
Full
Apr 2
Last Quarter

Hourly Weather History & Observations

Time (CST) Temp. Windchill Dew Point Humidity Pressure Visibility Wind Dir Wind Speed Gust Speed Precip Events Conditions
12:15 AM 32.0 °F 27.5 °F 21.2 °F 64% 30.34 in 10.0 mi SE 4.6 mph - N/A   Clear
12:35 AM 30.2 °F 23.4 °F 21.2 °F 69% 30.32 in 10.0 mi SE 6.9 mph - N/A   Clear
12:55 AM 30.2 °F 24.3 °F 21.2 °F 69% 30.32 in 10.0 mi SE 5.8 mph - N/A   Clear
1:15 AM 32.0 °F 27.5 °F 21.2 °F 64% 30.31 in 10.0 mi SE 4.6 mph - N/A   Clear
1:35 AM 32.0 °F 27.5 °F 21.2 °F 64% 30.31 in 10.0 mi SSE 4.6 mph - N/A   Clear
1:55 AM 32.0 °F 27.5 °F 21.2 °F 64% 30.30 in 10.0 mi ESE 4.6 mph - N/A   Clear
2:15 AM 32.0 °F 25.6 °F 21.2 °F 64% 30.30 in 10.0 mi SSE 6.9 mph - N/A   Clear
2:35 AM 32.0 °F 25.6 °F 21.2 °F 64% 30.28 in 10.0 mi SSE 6.9 mph - N/A   Clear
2:55 AM 32.0 °F 26.4 °F 21.2 °F 64% 30.28 in 10.0 mi SE 5.8 mph - N/A   Clear
3:15 AM 32.0 °F 27.5 °F 21.2 °F 64% 30.28 in 10.0 mi SSE 4.6 mph - N/A   Clear
3:35 AM 32.0 °F 26.4 °F 21.2 °F 64% 30.27 in 10.0 mi SE 5.8 mph - N/A   Clear
3:55 AM 32.0 °F 25.6 °F 23.0 °F 69% 30.27 in 10.0 mi SSE 6.9 mph - N/A   Clear
4:15 AM 32.0 °F 25.6 °F 23.0 °F 69% 30.25 in 10.0 mi SE 6.9 mph - N/A   Clear
4:35 AM 32.0 °F 24.8 °F 23.0 °F 69% 30.25 in 10.0 mi SSE 8.1 mph - N/A   Clear
4:55 AM 32.0 °F 25.6 °F 23.0 °F 69% 30.25 in 10.0 mi SSE 6.9 mph - N/A   Clear
5:15 AM 32.0 °F 24.2 °F 24.8 °F 75% 30.24 in 10.0 mi SE 9.2 mph - N/A   Clear
5:35 AM 32.0 °F 24.2 °F 24.8 °F 75% 30.24 in 10.0 mi SSE 9.2 mph - N/A   Clear
5:55 AM 32.0 °F 27.5 °F 26.6 °F 80% 30.25 in 10.0 mi SSE 4.6 mph - N/A   Clear
6:15 AM 32.0 °F 24.8 °F 26.6 °F 80% 30.26 in 10.0 mi SSE 8.1 mph - N/A   Scattered Clouds
6:35 AM 32.0 °F 28.7 °F 26.6 °F 80% 30.27 in 10.0 mi South 3.5 mph - N/A   Overcast
6:55 AM 32.0 °F 27.5 °F 26.6 °F 80% 30.27 in 10.0 mi SSE 4.6 mph - N/A   Overcast
7:15 AM 33.8 °F 29.6 °F 26.6 °F 75% 30.27 in 10.0 mi SSE 4.6 mph - N/A   Overcast
7:35 AM 33.8 °F 27.0 °F 26.6 °F 75% 30.27 in 10.0 mi SSE 8.1 mph - N/A   Overcast
7:55 AM 33.8 °F 27.7 °F 26.6 °F 75% 30.26 in 10.0 mi SSE 6.9 mph - N/A   Overcast
8:15 AM 35.6 °F 30.7 °F 26.6 °F 70% 30.25 in 10.0 mi SSE 5.8 mph - N/A   Overcast
8:35 AM 35.6 °F 30.7 °F 26.6 °F 70% 30.25 in 10.0 mi South 5.8 mph - N/A   Overcast
8:55 AM 35.6 °F 29.2 °F 26.6 °F 70% 30.25 in 10.0 mi South 8.1 mph - N/A Rain Light Rain
9:15 AM 35.6 °F 29.9 °F 28.4 °F 75% 30.24 in 10.0 mi SSE 6.9 mph - N/A   Overcast
9:35 AM 35.6 °F 30.7 °F 28.4 °F 75% 30.24 in 10.0 mi SSE 5.8 mph - N/A   Overcast
9:55 AM 35.6 °F 28.6 °F 28.4 °F 75% 30.22 in 10.0 mi SSE 9.2 mph - N/A   Overcast
10:15 AM 37.4 °F 30.3 °F 26.6 °F 65% 30.21 in 10.0 mi SSE 10.4 mph - N/A   Overcast
10:35 AM 37.4 °F 30.3 °F 26.6 °F 65% 30.18 in 10.0 mi SE 10.4 mph 16.1 mph N/A   Overcast
10:55 AM 37.4 °F 31.4 °F 26.6 °F 65% 30.18 in 10.0 mi SSE 8.1 mph - N/A   Mostly Cloudy
11:15 AM 39.2 °F 34.2 °F 26.6 °F 61% 30.17 in 10.0 mi SE 6.9 mph - N/A   Scattered Clouds
11:35 AM 41.0 °F 35.2 °F 26.6 °F 57% 30.14 in 10.0 mi SSE 9.2 mph 20.7 mph N/A   Mostly Cloudy
11:55 AM 41.0 °F 33.9 °F 26.6 °F 57% 30.15 in 10.0 mi South 12.7 mph 19.6 mph N/A   Overcast
12:15 PM 41.0 °F 34.3 °F 26.6 °F 57% 30.14 in 10.0 mi South 11.5 mph 18.4 mph N/A   Mostly Cloudy
12:35 PM 41.0 °F 34.7 °F 26.6 °F 57% 30.12 in 10.0 mi South 10.4 mph - N/A   Clear
12:55 PM 41.0 °F 35.2 °F 26.6 °F 57% 30.10 in 10.0 mi South 9.2 mph 19.6 mph N/A   Mostly Cloudy
1:15 PM 41.0 °F 35.8 °F 26.6 °F 57% 30.09 in 10.0 mi SSE 8.1 mph 17.3 mph N/A   Overcast
1:35 PM 41.0 °F 36.4 °F 26.6 °F 57% 30.07 in 10.0 mi SSE 6.9 mph 19.6 mph N/A   Overcast
1:55 PM 41.0 °F 35.2 °F 26.6 °F 57% 30.07 in 10.0 mi SSE 9.2 mph 18.4 mph N/A   Overcast
2:15 PM 41.0 °F 35.2 °F 28.4 °F 61% 30.06 in 10.0 mi SSE 9.2 mph - N/A   Overcast
2:35 PM 41.0 °F 35.2 °F 28.4 °F 61% 30.05 in 10.0 mi SSE 9.2 mph 18.4 mph N/A   Overcast
2:55 PM 41.0 °F 34.3 °F 28.4 °F 61% 30.04 in 10.0 mi SE 11.5 mph 20.7 mph N/A   Overcast
3:15 PM 41.0 °F 35.8 °F 28.4 °F 61% 30.03 in 10.0 mi SE 8.1 mph - N/A   Overcast
3:35 PM 41.0 °F 35.2 °F 30.2 °F 65% 30.02 in 10.0 mi SE 9.2 mph 16.1 mph N/A   Light Drizzle
3:55 PM 41.0 °F 35.2 °F 30.2 °F 65% 30.01 in 10.0 mi SE 9.2 mph 16.1 mph N/A   Overcast
4:15 PM 41.0 °F 38.0 °F 30.2 °F 65% 30.02 in 10.0 mi SSE 4.6 mph - N/A   Overcast
4:35 PM 41.0 °F 36.4 °F 30.2 °F 65% 30.01 in 10.0 mi SE 6.9 mph - N/A   Mostly Cloudy
4:55 PM 41.0 °F 36.4 °F 30.2 °F 65% 30.00 in 10.0 mi SE 6.9 mph 16.1 mph N/A   Scattered Clouds
5:15 PM 41.0 °F 34.7 °F 30.2 °F 65% 29.99 in 10.0 mi SE 10.4 mph 17.3 mph N/A   Mostly Cloudy
5:35 PM 41.0 °F 34.3 °F 30.2 °F 65% 29.98 in 10.0 mi SE 11.5 mph 16.1 mph N/A   Mostly Cloudy
5:55 PM 41.0 °F 35.2 °F 30.2 °F 65% 29.98 in 10.0 mi SSE 9.2 mph 18.4 mph N/A   Overcast
6:15 PM 41.0 °F 33.9 °F 32.0 °F 70% 29.97 in 10.0 mi SSE 12.7 mph 17.3 mph N/A   Mostly Cloudy
6:35 PM 41.0 °F 35.2 °F 32.0 °F 70% 29.96 in 10.0 mi SSE 9.2 mph 17.3 mph N/A   Mostly Cloudy
6:55 PM 41.0 °F 35.2 °F 32.0 °F 70% 29.96 in 10.0 mi SE 9.2 mph 17.3 mph N/A   Mostly Cloudy
7:15 PM 41.0 °F 35.8 °F 32.0 °F 70% 29.95 in 10.0 mi SE 8.1 mph 16.1 mph N/A   Clear
7:35 PM 41.0 °F 35.8 °F 32.0 °F 70% 29.94 in 10.0 mi SE 8.1 mph - N/A   Mostly Cloudy
7:55 PM 41.0 °F 35.8 °F 32.0 °F 70% 29.94 in 10.0 mi SSE 8.1 mph - N/A   Scattered Clouds
8:15 PM 41.0 °F 36.4 °F 32.0 °F 70% 29.94 in 10.0 mi SSE 6.9 mph - N/A   Clear
8:35 PM 41.0 °F 38.0 °F 32.0 °F 70% 29.94 in 10.0 mi SSE 4.6 mph - N/A   Clear
8:55 PM 42.8 °F 39.3 °F 32.0 °F 66% 29.94 in 10.0 mi SSE 5.8 mph - N/A   Clear
9:15 PM 42.8 °F 39.3 °F 32.0 °F 66% 29.93 in 10.0 mi SSE 5.8 mph - N/A   Clear
9:35 PM 42.8 °F 38.6 °F 32.0 °F 66% 29.93 in 10.0 mi South 6.9 mph - N/A   Clear
9:55 PM 44.6 °F 39.7 °F 32.0 °F 61% 29.92 in 10.0 mi South 9.2 mph - N/A   Clear
10:15 PM 44.6 °F 40.2 °F 32.0 °F 61% 29.92 in 10.0 mi SSE 8.1 mph - N/A   Clear
10:35 PM 44.6 °F 40.2 °F 32.0 °F 61% 29.91 in 10.0 mi South 8.1 mph 19.6 mph N/A   Clear
10:55 PM 44.6 °F 40.2 °F 32.0 °F 61% 29.91 in 10.0 mi SSE 8.1 mph - N/A   Clear
11:15 PM 44.6 °F 40.2 °F 32.0 °F 61% 29.90 in 10.0 mi South 8.1 mph - N/A   Clear
11:35 PM 44.6 °F 40.2 °F 32.0 °F 61% 29.90 in 10.0 mi South 8.1 mph - N/A   Scattered Clouds
11:55 PM 44.6 °F 39.7 °F 32.0 °F 61% 29.89 in 10.0 mi South 9.2 mph - N/A   Overcast